Voltar ao catálogo

KUIPER-00480

AtivoComunicaçõesLEO
NORAD 68876·PAYLOAD·🇺🇸 United States

Lançado Apr 28, 2026 de Cape Canaveral Space Force Station

Loading…

Próximas Passagens (próximas 24 horas)

TLE

AtualizadoSource: CelesTrak SupGP

Época: Sep 14, 2026, 21:52 UTC

1 68876C 26095N   26257.91118056  .00038083  00000+0  49834-2 0  2578
2 68876  51.9027 193.9178 0000853  93.6255 144.2072 14.79907981    11

Acompanhe KUIPER-00480 em tempo real com AllMySat

Download on the App Store